Location: Krasnoyarskiy Pitomnik
(51.1333°N, 71.6167°E)
Time: 12:59:55
(UTC+00:00)

Transit 2A - Pass Details

Date: 19 April 2024
Orbit: 594 x 958 km, 66.7° (Epoch: 27 May)

Event Time Altitude Azimuth Distance (km) Brightness Sun altitude
Rises 07:17:58 0° 316° (NW) 3,080 8.9 50.2°
Reaches altitude 10° 07:21:02 10° 337° (NNW) 2,232 8.2 50.2°
Maximum altitude 07:24:22 17° 18° (NNE) 1,866 7.8 50.2°
Drops below altitude 10° 07:27:53 10° 58° (ENE) 2,391 8.4 50.1°
Sets 07:31:21 0° 78° (ENE) 3,401 9.2 50.1°
